date,time,water_lv
2023-10-01,00:00:00,0.774
2023-10-01,00:10:00,0.774
2023-10-01,00:20:00,0.774
2023-10-01,00:30:00,0.774
2023-10-01,00:40:00,0.774
2023-10-01,00:50:00,0.774
2023-10-01,01:00:00,0.774
2023-10-01,01:10:00,0.774
2023-10-01,01:20:00,0.772
2023-10-01,01:30:00,0.774
2023-10-01,01:40:00,0.772
2023-10-01,01:50:00,0.772
2023-10-01,02:00:00,0.769
2023-10-01,02:10:00,0.771
2023-10-01,02:20:00,0.768
2023-10-01,02:30:00,0.769
2023-10-01,02:40:00,0.767
2023-10-01,02:50:00,0.765
2023-10-01,03:00:00,0.764
2023-10-01,03:10:00,0.764
2023-10-01,03:20:00,0.762
2023-10-01,03:30:00,0.76
2023-10-01,03:40:00,0.757
2023-10-01,03:50:00,0.757
2023-10-01,04:00:00,0.756
2023-10-01,04:10:00,0.75
2023-10-01,04:20:00,0.754
2023-10-01,04:30:00,0.75
2023-10-01,04:40:00,0.748
2023-10-01,04:50:00,0.746
2023-10-01,05:00:00,0.744
2023-10-01,05:10:00,0.743
2023-10-01,05:20:00,0.742
2023-10-01,05:30:00,0.742
2023-10-01,05:40:00,0.737
2023-10-01,05:50:00,0.737
2023-10-01,06:00:00,0.734
2023-10-01,06:10:00,0.733
2023-10-01,06:20:00,0.73
2023-10-01,06:30:00,-
2023-10-01,06:40:00,0.729
2023-10-01,06:50:00,0.721
2023-10-01,07:00:00,0.724
2023-10-01,07:10:00,0.724
2023-10-01,07:20:00,0.71
2023-10-01,07:30:00,0.719
2023-10-01,07:40:00,0.721
2023-10-01,07:50:00,0.72
2023-10-01,08:00:00,0.719
2023-10-01,08:10:00,0.715
2023-10-01,08:20:00,0.716
2023-10-01,08:30:00,0.715
2023-10-01,08:40:00,0.714
2023-10-01,08:50:00,0.713
2023-10-01,09:00:00,0.713
2023-10-01,09:10:00,0.713
2023-10-01,09:20:00,0.712
2023-10-01,09:30:00,0.713
2023-10-01,09:40:00,0.713
2023-10-01,09:50:00,0.714
2023-10-01,10:00:00,0.713
2023-10-01,10:10:00,-
2023-10-01,10:20:00,0.702
2023-10-01,10:30:00,0.714
2023-10-01,10:40:00,0.715
2023-10-01,10:50:00,-
2023-10-01,11:00:00,0.716
2023-10-01,11:10:00,0.717
2023-10-01,11:20:00,0.717
2023-10-01,11:30:00,0.717
2023-10-01,11:40:00,0.719
2023-10-01,11:50:00,0.719
2023-10-01,12:00:00,0.717
2023-10-01,12:10:00,0.717
2023-10-01,12:20:00,0.716
2023-10-01,12:30:00,0.717
2023-10-01,12:40:00,0.717
2023-10-01,12:50:00,0.717
2023-10-01,13:00:00,0.715
2023-10-01,13:10:00,0.713
2023-10-01,13:20:00,0.712
2023-10-01,13:30:00,0.712
2023-10-01,13:40:00,0.713
2023-10-01,13:50:00,0.706
2023-10-01,14:00:00,0.713
2023-10-01,14:10:00,0.712
2023-10-01,14:20:00,0.708
2023-10-01,14:30:00,0.706
2023-10-01,14:40:00,0.699
2023-10-01,14:50:00,0.708
2023-10-01,15:00:00,0.706
2023-10-01,15:10:00,0.703
2023-10-01,15:20:00,0.694
2023-10-01,15:30:00,0.818
2023-10-01,15:40:00,0.693
2023-10-01,15:50:00,0.693
2023-10-01,16:00:00,0.703
2023-10-01,16:10:00,0.69
2023-10-01,16:20:00,-
2023-10-01,16:30:00,0.696
2023-10-01,16:40:00,0.688
2023-10-01,16:50:00,0.692
2023-10-01,17:00:00,0.692
2023-10-01,17:10:00,0.685
2023-10-01,17:20:00,0.69
2023-10-01,17:30:00,0.688
2023-10-01,17:40:00,0.678
2023-10-01,17:50:00,0.676
2023-10-01,18:00:00,0.693
2023-10-01,18:10:00,0.69
2023-10-01,18:20:00,0.692
2023-10-01,18:30:00,0.678
2023-10-01,18:40:00,0.682
2023-10-01,18:50:00,-
2023-10-01,19:00:00,0.676
2023-10-01,19:10:00,0.681
2023-10-01,19:20:00,0.68
2023-10-01,19:30:00,0.683
2023-10-01,19:40:00,-
2023-10-01,19:50:00,0.68
2023-10-01,20:00:00,0.679
2023-10-01,20:10:00,0.675
2023-10-01,20:20:00,0.673
2023-10-01,20:30:00,0.671
2023-10-01,20:40:00,0.679
2023-10-01,20:50:00,0.68
2023-10-01,21:00:00,0.682
2023-10-01,21:10:00,0.694
2023-10-01,21:20:00,0.695
2023-10-01,21:30:00,0.694
2023-10-01,21:40:00,0.699
2023-10-01,21:50:00,0.702
2023-10-01,22:00:00,0.705
2023-10-01,22:10:00,0.707
2023-10-01,22:20:00,0.708
2023-10-01,22:30:00,0.709
2023-10-01,22:40:00,0.71
2023-10-01,22:50:00,0.713
2023-10-01,23:00:00,0.712
2023-10-01,23:10:00,0.714
2023-10-01,23:20:00,0.714
2023-10-01,23:30:00,0.712
2023-10-01,23:40:00,0.712
2023-10-01,23:50:00,0.71
2023-10-02,00:00:00,0.709
2023-10-02,00:10:00,0.709
2023-10-02,00:20:00,0.709
2023-10-02,00:30:00,0.707
2023-10-02,00:40:00,0.706
2023-10-02,00:50:00,0.694
2023-10-02,01:00:00,0.696
2023-10-02,01:10:00,0.717
2023-10-02,01:20:00,0.699
2023-10-02,01:30:00,0.693
2023-10-02,01:40:00,0.693
2023-10-02,01:50:00,0.708
2023-10-02,02:00:00,0.687
2023-10-02,02:10:00,0.746
2023-10-02,02:20:00,0.687
2023-10-02,02:30:00,0.686
2023-10-02,02:40:00,0.728
2023-10-02,02:50:00,0.697
2023-10-02,03:00:00,0.77
2023-10-02,03:10:00,0.673
2023-10-02,03:20:00,0.673
2023-10-02,03:30:00,0.678
2023-10-02,03:40:00,0.658
2023-10-02,03:50:00,0.662
2023-10-02,04:00:00,0.678
2023-10-02,04:10:00,0.659
2023-10-02,04:20:00,0.675
2023-10-02,04:30:00,0.672
2023-10-02,04:40:00,0.66
2023-10-02,04:50:00,0.665
2023-10-02,05:00:00,0.66
2023-10-02,05:10:00,0.666
2023-10-02,05:20:00,0.661
2023-10-02,05:30:00,0.666
2023-10-02,05:40:00,0.648
2023-10-02,05:50:00,0.661
2023-10-02,06:00:00,0.662
2023-10-02,06:10:00,0.658
2023-10-02,06:20:00,0.646
2023-10-02,06:30:00,0.641
2023-10-02,06:40:00,0.642
2023-10-02,06:50:00,0.679
2023-10-02,07:00:00,0.642
2023-10-02,07:10:00,0.638
2023-10-02,07:20:00,0.641
2023-10-02,07:30:00,0.63
2023-10-02,07:40:00,0.638
2023-10-02,07:50:00,0.634
2023-10-02,08:00:00,0.615
2023-10-02,08:10:00,0.626
2023-10-02,08:20:00,0.621
2023-10-02,08:30:00,0.626
2023-10-02,08:40:00,0.626
2023-10-02,08:50:00,0.624
2023-10-02,09:00:00,0.62
2023-10-02,09:10:00,0.613
2023-10-02,09:20:00,0.624
2023-10-02,09:30:00,0.622
2023-10-02,09:40:00,0.61
2023-10-02,09:50:00,0.601
2023-10-02,10:00:00,0.618
2023-10-02,10:10:00,0.619
2023-10-02,10:20:00,0.625
2023-10-02,10:30:00,0.622
2023-10-02,10:40:00,0.626
2023-10-02,10:50:00,0.628
2023-10-02,11:00:00,0.631
2023-10-02,11:10:00,0.63
2023-10-02,11:20:00,0.627
2023-10-02,11:30:00,0.608
2023-10-02,11:40:00,0.635
2023-10-02,11:50:00,0.635
2023-10-02,12:00:00,0.639
2023-10-02,12:10:00,0.642
2023-10-02,12:20:00,0.645
2023-10-02,12:30:00,0.645
2023-10-02,12:40:00,0.646
2023-10-02,12:50:00,0.648
2023-10-02,13:00:00,0.648
2023-10-02,13:10:00,0.651
2023-10-02,13:20:00,0.652
2023-10-02,13:30:00,0.652
2023-10-02,13:40:00,0.652
2023-10-02,13:50:00,0.652
2023-10-02,14:00:00,0.649
2023-10-02,14:10:00,0.652
2023-10-02,14:20:00,0.656
2023-10-02,14:30:00,0.666
2023-10-02,14:40:00,0.665
2023-10-02,14:50:00,0.662
2023-10-02,15:00:00,0.654
2023-10-02,15:10:00,0.655
2023-10-02,15:20:00,0.656
2023-10-02,15:30:00,0.646
2023-10-02,15:40:00,0.665
2023-10-02,15:50:00,0.665
2023-10-02,16:00:00,0.668
2023-10-02,16:10:00,0.655
2023-10-02,16:20:00,0.661
2023-10-02,16:30:00,0.63
2023-10-02,16:40:00,0.649
2023-10-02,16:50:00,0.637
2023-10-02,17:00:00,0.628
2023-10-02,17:10:00,0.639
2023-10-02,17:20:00,0.633
2023-10-02,17:30:00,0.64
2023-10-02,17:40:00,0.647
2023-10-02,17:50:00,0.63
2023-10-02,18:00:00,-
2023-10-02,18:10:00,0.639
2023-10-02,18:20:00,0.638
2023-10-02,18:30:00,0.634
2023-10-02,18:40:00,0.635
2023-10-02,18:50:00,0.639
2023-10-02,19:00:00,0.63
2023-10-02,19:10:00,0.626
2023-10-02,19:20:00,0.63
2023-10-02,19:30:00,0.628
2023-10-02,19:40:00,0.615
2023-10-02,19:50:00,0.621
2023-10-02,20:00:00,0.615
2023-10-02,20:10:00,0.625
2023-10-02,20:20:00,0.62
2023-10-02,20:30:00,0.626
2023-10-02,20:40:00,0.635
2023-10-02,20:50:00,0.631
2023-10-02,21:00:00,0.627
2023-10-02,21:10:00,0.635
2023-10-02,21:20:00,0.624
2023-10-02,21:30:00,0.639
2023-10-02,21:40:00,0.63
2023-10-02,21:50:00,0.632
2023-10-02,22:00:00,0.638
2023-10-02,22:10:00,0.632
2023-10-02,22:20:00,0.633
2023-10-02,22:30:00,0.633
2023-10-02,22:40:00,0.637
2023-10-02,22:50:00,0.639
2023-10-02,23:00:00,0.639
2023-10-02,23:10:00,0.64
2023-10-02,23:20:00,0.639
2023-10-02,23:30:00,-
2023-10-02,23:40:00,0.64
2023-10-02,23:50:00,0.641
2023-10-03,00:00:00,0.642
2023-10-03,00:10:00,0.642
2023-10-03,00:20:00,0.642
2023-10-03,00:30:00,0.64
2023-10-03,00:40:00,0.648
2023-10-03,00:50:00,0.637
2023-10-03,01:00:00,0.634
2023-10-03,01:10:00,0.642
2023-10-03,01:20:00,0.64
2023-10-03,01:30:00,0.641
2023-10-03,01:40:00,0.625
2023-10-03,01:50:00,0.633
2023-10-03,02:00:00,0.632
2023-10-03,02:10:00,0.637
2023-10-03,02:20:00,0.619
2023-10-03,02:30:00,0.639
2023-10-03,02:40:00,0.632
2023-10-03,02:50:00,0.633
2023-10-03,03:00:00,0.621
2023-10-03,03:10:00,0.622
2023-10-03,03:20:00,0.642
2023-10-03,03:30:00,0.627
2023-10-03,03:40:00,0.626
2023-10-03,03:50:00,0.62
2023-10-03,04:00:00,0.615
2023-10-03,04:10:00,0.62
2023-10-03,04:20:00,0.615
2023-10-03,04:30:00,0.617
2023-10-03,04:40:00,0.612
2023-10-03,04:50:00,0.622
2023-10-03,05:00:00,0.603
2023-10-03,05:10:00,0.606
2023-10-03,05:20:00,0.603
2023-10-03,05:30:00,0.599
2023-10-03,05:40:00,0.605
2023-10-03,05:50:00,0.603
2023-10-03,06:00:00,0.605
2023-10-03,06:10:00,0.591
2023-10-03,06:20:00,0.591
2023-10-03,06:30:00,0.593
2023-10-03,06:40:00,0.597
2023-10-03,06:50:00,0.587
2023-10-03,07:00:00,0.577
2023-10-03,07:10:00,0.559
2023-10-03,07:20:00,0.586
2023-10-03,07:30:00,0.601
2023-10-03,07:40:00,0.577
2023-10-03,07:50:00,0.574
2023-10-03,08:00:00,0.553
2023-10-03,08:10:00,0.58
2023-10-03,08:20:00,0.567
2023-10-03,08:30:00,0.597
2023-10-03,08:40:00,0.586
2023-10-03,08:50:00,0.593
2023-10-03,09:00:00,0.591
2023-10-03,09:10:00,0.583
2023-10-03,09:20:00,0.586
2023-10-03,09:30:00,0.586
2023-10-03,09:40:00,0.583
2023-10-03,09:50:00,0.585
2023-10-03,10:00:00,0.586
2023-10-03,10:10:00,0.586
2023-10-03,10:20:00,0.59
2023-10-03,10:30:00,0.59
2023-10-03,10:40:00,0.588
2023-10-03,10:50:00,0.591
2023-10-03,11:00:00,0.596
2023-10-03,11:10:00,0.596
2023-10-03,11:20:00,0.6
2023-10-03,11:30:00,0.601
2023-10-03,11:40:00,0.603
2023-10-03,11:50:00,0.605
2023-10-03,12:00:00,0.608
2023-10-03,12:10:00,0.606
2023-10-03,12:20:00,0.6
2023-10-03,12:30:00,0.618
2023-10-03,12:40:00,0.625
2023-10-03,12:50:00,0.634
2023-10-03,13:00:00,0.637
2023-10-03,13:10:00,0.641
2023-10-03,13:20:00,0.647
2023-10-03,13:30:00,0.652
2023-10-03,13:40:00,0.654
2023-10-03,13:50:00,0.655
2023-10-03,14:00:00,0.659
2023-10-03,14:10:00,0.662
2023-10-03,14:20:00,0.665
2023-10-03,14:30:00,0.667
2023-10-03,14:40:00,0.669
2023-10-03,14:50:00,0.671
2023-10-03,15:00:00,0.672
2023-10-03,15:10:00,-
2023-10-03,15:20:00,0.678
2023-10-03,15:30:00,0.674
2023-10-03,15:40:00,0.675
2023-10-03,15:50:00,0.679
2023-10-03,16:00:00,0.682
2023-10-03,16:10:00,0.683
2023-10-03,16:20:00,0.673
2023-10-03,16:30:00,0.672
2023-10-03,16:40:00,0.674
2023-10-03,16:50:00,0.681
2023-10-03,17:00:00,0.694
2023-10-03,17:10:00,0.703
2023-10-03,17:20:00,0.714
2023-10-03,17:30:00,0.695
2023-10-03,17:40:00,0.706
2023-10-03,17:50:00,0.741
2023-10-03,18:00:00,0.758
2023-10-03,18:10:00,0.754
2023-10-03,18:20:00,0.746
2023-10-03,18:30:00,0.737
2023-10-03,18:40:00,0.746
2023-10-03,18:50:00,0.75
2023-10-03,19:00:00,0.754
2023-10-03,19:10:00,0.755
2023-10-03,19:20:00,0.755
2023-10-03,19:30:00,0.755
2023-10-03,19:40:00,0.76
2023-10-03,19:50:00,0.765
2023-10-03,20:00:00,0.763
2023-10-03,20:10:00,0.761
2023-10-03,20:20:00,0.756
2023-10-03,20:30:00,0.753
2023-10-03,20:40:00,0.754
2023-10-03,20:50:00,0.76
2023-10-03,21:00:00,0.757
2023-10-03,21:10:00,0.763
2023-10-03,21:20:00,0.76
2023-10-03,21:30:00,0.763
2023-10-03,21:40:00,0.764
2023-10-03,21:50:00,0.77
2023-10-03,22:00:00,0.765
2023-10-03,22:10:00,0.769
2023-10-03,22:20:00,0.774
2023-10-03,22:30:00,0.772
2023-10-03,22:40:00,0.776
2023-10-03,22:50:00,0.781
2023-10-03,23:00:00,0.782
2023-10-03,23:10:00,0.777
2023-10-03,23:20:00,0.782
2023-10-03,23:30:00,0.775
2023-10-03,23:40:00,0.781
2023-10-03,23:50:00,0.783
2023-10-04,00:00:00,0.787
2023-10-04,00:10:00,0.788
2023-10-04,00:20:00,0.789
2023-10-04,00:30:00,0.783
2023-10-04,00:40:00,0.79
2023-10-04,00:50:00,0.791
2023-10-04,01:00:00,0.789
2023-10-04,01:10:00,0.791
2023-10-04,01:20:00,0.791
2023-10-04,01:30:00,0.792
2023-10-04,01:40:00,0.791
2023-10-04,01:50:00,0.79
2023-10-04,02:00:00,0.789
2023-10-04,02:10:00,0.787
2023-10-04,02:20:00,0.783
2023-10-04,02:30:00,0.783
2023-10-04,02:40:00,0.783
2023-10-04,02:50:00,0.783
2023-10-04,03:00:00,0.782
2023-10-04,03:10:00,0.782
2023-10-04,03:20:00,0.78
2023-10-04,03:30:00,0.78
2023-10-04,03:40:00,0.778
2023-10-04,03:50:00,0.776
2023-10-04,04:00:00,0.776
2023-10-04,04:10:00,0.775
2023-10-04,04:20:00,0.771
2023-10-04,04:30:00,0.774
2023-10-04,04:40:00,0.77
2023-10-04,04:50:00,0.771
2023-10-04,05:00:00,0.77
2023-10-04,05:10:00,0.77
2023-10-04,05:20:00,0.768
2023-10-04,05:30:00,0.767
2023-10-04,05:40:00,0.764
2023-10-04,05:50:00,0.764
2023-10-04,06:00:00,0.764
2023-10-04,06:10:00,0.762
2023-10-04,06:20:00,0.763
2023-10-04,06:30:00,0.762
2023-10-04,06:40:00,0.765
2023-10-04,06:50:00,0.761
2023-10-04,07:00:00,0.763
2023-10-04,07:10:00,0.758
2023-10-04,07:20:00,0.764
2023-10-04,07:30:00,0.764
2023-10-04,07:40:00,0.763
2023-10-04,07:50:00,0.762
2023-10-04,08:00:00,0.763
2023-10-04,08:10:00,0.762
2023-10-04,08:20:00,0.761
2023-10-04,08:30:00,0.754
2023-10-04,08:40:00,-
2023-10-04,08:50:00,0.751
2023-10-04,09:00:00,0.753
2023-10-04,09:10:00,0.756
2023-10-04,09:20:00,0.755
2023-10-04,09:30:00,0.756
2023-10-04,09:40:00,0.75
2023-10-04,09:50:00,0.749
2023-10-04,10:00:00,0.75
2023-10-04,10:10:00,0.751
2023-10-04,10:20:00,0.753
2023-10-04,10:30:00,0.751
2023-10-04,10:40:00,0.75
2023-10-04,10:50:00,0.753
2023-10-04,11:00:00,0.753
2023-10-04,11:10:00,0.755
2023-10-04,11:20:00,0.755
2023-10-04,11:30:00,0.756
2023-10-04,11:40:00,0.756
2023-10-04,11:50:00,0.757
2023-10-04,12:00:00,0.758
2023-10-04,12:10:00,0.761
2023-10-04,12:20:00,0.762
2023-10-04,12:30:00,0.763
2023-10-04,12:40:00,0.767
2023-10-04,12:50:00,0.767
2023-10-04,13:00:00,0.768
2023-10-04,13:10:00,0.769
2023-10-04,13:20:00,0.77
2023-10-04,13:30:00,0.77
2023-10-04,13:40:00,0.772
2023-10-04,13:50:00,0.774
2023-10-04,14:00:00,0.775
2023-10-04,14:10:00,0.776
2023-10-04,14:20:00,-
2023-10-04,14:30:00,0.772
2023-10-04,14:40:00,0.778
2023-10-04,14:50:00,0.777
2023-10-04,15:00:00,0.776
2023-10-04,15:10:00,0.749
2023-10-04,15:20:00,0.757
2023-10-04,15:30:00,0.78
2023-10-04,15:40:00,0.796
2023-10-04,15:50:00,0.799
2023-10-04,16:00:00,0.801
2023-10-04,16:10:00,0.799
2023-10-04,16:20:00,0.799
2023-10-04,16:30:00,0.798
2023-10-04,16:40:00,0.799
2023-10-04,16:50:00,0.801
2023-10-04,17:00:00,0.803
2023-10-04,17:10:00,0.803
2023-10-04,17:20:00,-
2023-10-04,17:30:00,0.802
2023-10-04,17:40:00,0.803
2023-10-04,17:50:00,0.804
2023-10-04,18:00:00,0.804
2023-10-04,18:10:00,0.804
2023-10-04,18:20:00,0.804
2023-10-04,18:30:00,0.803
2023-10-04,18:40:00,0.802
2023-10-04,18:50:00,0.802
2023-10-04,19:00:00,0.801
2023-10-04,19:10:00,0.799
2023-10-04,19:20:00,0.801
2023-10-04,19:30:00,0.796
2023-10-04,19:40:00,0.799
2023-10-04,19:50:00,0.799
2023-10-04,20:00:00,0.797
2023-10-04,20:10:00,0.798
2023-10-04,20:20:00,0.796
2023-10-04,20:30:00,0.796
2023-10-04,20:40:00,0.795
2023-10-04,20:50:00,0.798
2023-10-04,21:00:00,0.797
2023-10-04,21:10:00,0.795
2023-10-04,21:20:00,0.797
2023-10-04,21:30:00,0.796
2023-10-04,21:40:00,0.791
2023-10-04,21:50:00,0.79
2023-10-04,22:00:00,0.798
2023-10-04,22:10:00,0.798
2023-10-04,22:20:00,0.799
2023-10-04,22:30:00,0.799
2023-10-04,22:40:00,0.799
2023-10-04,22:50:00,0.799
2023-10-04,23:00:00,0.801
2023-10-04,23:10:00,0.801
2023-10-04,23:20:00,0.799
2023-10-04,23:30:00,0.801
2023-10-04,23:40:00,0.801
2023-10-04,23:50:00,0.803
2023-10-05,00:00:00,0.802
2023-10-05,00:10:00,0.803
2023-10-05,00:20:00,0.805
2023-10-05,00:30:00,0.805
2023-10-05,00:40:00,0.805
2023-10-05,00:50:00,0.805
2023-10-05,01:00:00,0.805
2023-10-05,01:10:00,0.806
2023-10-05,01:20:00,0.805
2023-10-05,01:30:00,0.805
2023-10-05,01:40:00,0.806
2023-10-05,01:50:00,0.806
2023-10-05,02:00:00,0.805
2023-10-05,02:10:00,0.806
2023-10-05,02:20:00,0.806
2023-10-05,02:30:00,0.805
2023-10-05,02:40:00,0.804
2023-10-05,02:50:00,0.803
2023-10-05,03:00:00,0.804
2023-10-05,03:10:00,0.805
2023-10-05,03:20:00,0.804
2023-10-05,03:30:00,0.804
2023-10-05,03:40:00,0.805
2023-10-05,03:50:00,0.804
2023-10-05,04:00:00,0.803
2023-10-05,04:10:00,-
2023-10-05,04:20:00,0.802
2023-10-05,04:30:00,0.799
2023-10-05,04:40:00,0.753
2023-10-05,04:50:00,0.79
2023-10-05,05:00:00,0.799
2023-10-05,05:10:00,0.797
2023-10-05,05:20:00,0.796
2023-10-05,05:30:00,0.797
2023-10-05,05:40:00,0.792
2023-10-05,05:50:00,0.788
2023-10-05,06:00:00,0.788
2023-10-05,06:10:00,0.79
2023-10-05,06:20:00,0.79
2023-10-05,06:30:00,0.788
2023-10-05,06:40:00,0.785
2023-10-05,06:50:00,0.782
2023-10-05,07:00:00,0.782
2023-10-05,07:10:00,0.782
2023-10-05,07:20:00,0.778
2023-10-05,07:30:00,0.78
2023-10-05,07:40:00,0.776
2023-10-05,07:50:00,0.774
2023-10-05,08:00:00,0.774
2023-10-05,08:10:00,0.77
2023-10-05,08:20:00,0.765
2023-10-05,08:30:00,0.754
2023-10-05,08:40:00,-
2023-10-05,08:50:00,0.762
2023-10-05,09:00:00,0.764
2023-10-05,09:10:00,0.76
2023-10-05,09:20:00,0.756
2023-10-05,09:30:00,0.753
2023-10-05,09:40:00,0.755
2023-10-05,09:50:00,0.75
2023-10-05,10:00:00,0.737
2023-10-05,10:10:00,0.738
2023-10-05,10:20:00,0.746
2023-10-05,10:30:00,0.748
2023-10-05,10:40:00,0.722
2023-10-05,10:50:00,0.714
2023-10-05,11:00:00,0.7
2023-10-05,11:10:00,0.709
2023-10-05,11:20:00,0.721
2023-10-05,11:30:00,0.723
2023-10-05,11:40:00,0.722
2023-10-05,11:50:00,0.722
2023-10-05,12:00:00,0.717
2023-10-05,12:10:00,0.722
2023-10-05,12:20:00,0.722
2023-10-05,12:30:00,0.723
2023-10-05,12:40:00,0.724
2023-10-05,12:50:00,0.723
2023-10-05,13:00:00,0.723
2023-10-05,13:10:00,0.723
2023-10-05,13:20:00,0.72
2023-10-05,13:30:00,0.726
2023-10-05,13:40:00,0.723
2023-10-05,13:50:00,0.719
2023-10-05,14:00:00,0.72
2023-10-05,14:10:00,0.721
2023-10-05,14:20:00,0.726
2023-10-05,14:30:00,0.719
2023-10-05,14:40:00,0.72
2023-10-05,14:50:00,0.72
2023-10-05,15:00:00,0.722
2023-10-05,15:10:00,0.726
2023-10-05,15:20:00,0.719
2023-10-05,15:30:00,-
2023-10-05,15:40:00,0.728
2023-10-05,15:50:00,0.735
2023-10-05,16:00:00,0.734
2023-10-05,16:10:00,0.734
2023-10-05,16:20:00,0.735
2023-10-05,16:30:00,0.737
2023-10-05,16:40:00,0.738
2023-10-05,16:50:00,0.74
2023-10-05,17:00:00,0.74
2023-10-05,17:10:00,0.738
2023-10-05,17:20:00,0.733
2023-10-05,17:30:00,0.735
2023-10-05,17:40:00,0.733
2023-10-05,17:50:00,0.735
2023-10-05,18:00:00,0.736
2023-10-05,18:10:00,0.738
2023-10-05,18:20:00,0.737
2023-10-05,18:30:00,0.737
2023-10-05,18:40:00,0.737
2023-10-05,18:50:00,0.735
2023-10-05,19:00:00,0.734
2023-10-05,19:10:00,0.733
2023-10-05,19:20:00,0.735
2023-10-05,19:30:00,0.735
2023-10-05,19:40:00,0.736
2023-10-05,19:50:00,0.735
2023-10-05,20:00:00,0.736
2023-10-05,20:10:00,0.736
2023-10-05,20:20:00,0.737
2023-10-05,20:30:00,0.736
2023-10-05,20:40:00,0.737
2023-10-05,20:50:00,0.736
2023-10-05,21:00:00,0.737
2023-10-05,21:10:00,0.736
2023-10-05,21:20:00,0.736
2023-10-05,21:30:00,-
2023-10-05,21:40:00,0.736
2023-10-05,21:50:00,0.737
2023-10-05,22:00:00,0.737
2023-10-05,22:10:00,0.738
2023-10-05,22:20:00,0.736
2023-10-05,22:30:00,0.736
2023-10-05,22:40:00,0.74
2023-10-05,22:50:00,0.738
2023-10-05,23:00:00,0.74
2023-10-05,23:10:00,0.736
2023-10-05,23:20:00,0.738
2023-10-05,23:30:00,0.74
2023-10-05,23:40:00,0.74
2023-10-05,23:50:00,0.741
2023-10-06,00:00:00,0.74
2023-10-06,00:10:00,0.741
2023-10-06,00:20:00,0.741
2023-10-06,00:30:00,0.741
2023-10-06,00:40:00,-
2023-10-06,00:50:00,0.742
2023-10-06,01:00:00,-
2023-10-06,01:10:00,0.742
2023-10-06,01:20:00,0.742
2023-10-06,01:30:00,0.741
2023-10-06,01:40:00,0.731
2023-10-06,01:50:00,0.743
2023-10-06,02:00:00,0.742
2023-10-06,02:10:00,0.743
2023-10-06,02:20:00,0.744
2023-10-06,02:30:00,0.743
2023-10-06,02:40:00,0.742
2023-10-06,02:50:00,0.734
2023-10-06,03:00:00,0.74
2023-10-06,03:10:00,0.744
2023-10-06,03:20:00,0.746
2023-10-06,03:30:00,0.744
2023-10-06,03:40:00,0.744
2023-10-06,03:50:00,0.743
2023-10-06,04:00:00,0.744
2023-10-06,04:10:00,0.743
2023-10-06,04:20:00,0.743
2023-10-06,04:30:00,0.743
2023-10-06,04:40:00,0.742
2023-10-06,04:50:00,0.741
2023-10-06,05:00:00,0.741
2023-10-06,05:10:00,0.738
2023-10-06,05:20:00,0.74
2023-10-06,05:30:00,0.74
2023-10-06,05:40:00,0.737
2023-10-06,05:50:00,0.737
2023-10-06,06:00:00,0.736
2023-10-06,06:10:00,0.736
2023-10-06,06:20:00,0.734
2023-10-06,06:30:00,0.735
2023-10-06,06:40:00,0.734
2023-10-06,06:50:00,0.733
2023-10-06,07:00:00,0.735
2023-10-06,07:10:00,0.729
2023-10-06,07:20:00,0.727
2023-10-06,07:30:00,0.723
2023-10-06,07:40:00,0.724
2023-10-06,07:50:00,0.724
2023-10-06,08:00:00,0.722
2023-10-06,08:10:00,0.722
2023-10-06,08:20:00,0.72
2023-10-06,08:30:00,0.719
2023-10-06,08:40:00,0.717
2023-10-06,08:50:00,0.715
2023-10-06,09:00:00,0.714
2023-10-06,09:10:00,0.712
2023-10-06,09:20:00,0.71
2023-10-06,09:30:00,0.709
2023-10-06,09:40:00,0.706
2023-10-06,09:50:00,0.701
2023-10-06,10:00:00,0.697
2023-10-06,10:10:00,0.697
2023-10-06,10:20:00,0.697
2023-10-06,10:30:00,0.696
2023-10-06,10:40:00,0.692
2023-10-06,10:50:00,0.686
2023-10-06,11:00:00,0.687
2023-10-06,11:10:00,0.688
2023-10-06,11:20:00,0.687
2023-10-06,11:30:00,0.687
2023-10-06,11:40:00,0.686
2023-10-06,11:50:00,0.685
2023-10-06,12:00:00,0.685
2023-10-06,12:10:00,0.683
2023-10-06,12:20:00,0.683
2023-10-06,12:30:00,0.683
2023-10-06,12:40:00,0.682
2023-10-06,12:50:00,0.682
2023-10-06,13:00:00,0.683
2023-10-06,13:10:00,0.682
2023-10-06,13:20:00,0.682
2023-10-06,13:30:00,0.682
2023-10-06,13:40:00,0.682
2023-10-06,13:50:00,0.683
2023-10-06,14:00:00,0.683
2023-10-06,14:10:00,0.686
2023-10-06,14:20:00,0.679
2023-10-06,14:30:00,0.676
2023-10-06,14:40:00,0.683
2023-10-06,14:50:00,0.693
2023-10-06,15:00:00,0.695
2023-10-06,15:10:00,0.695
2023-10-06,15:20:00,0.696
2023-10-06,15:30:00,0.699
2023-10-06,15:40:00,0.699
2023-10-06,15:50:00,0.7
2023-10-06,16:00:00,0.702
2023-10-06,16:10:00,0.702
2023-10-06,16:20:00,0.703
2023-10-06,16:30:00,0.703
2023-10-06,16:40:00,0.703
2023-10-06,16:50:00,0.705
2023-10-06,17:00:00,0.706
2023-10-06,17:10:00,0.707
2023-10-06,17:20:00,0.708
2023-10-06,17:30:00,0.709
2023-10-06,17:40:00,0.71
2023-10-06,17:50:00,0.712
2023-10-06,18:00:00,0.712
2023-10-06,18:10:00,0.712
2023-10-06,18:20:00,0.709
2023-10-06,18:30:00,0.713
2023-10-06,18:40:00,0.715
2023-10-06,18:50:00,0.712
2023-10-06,19:00:00,0.712
2023-10-06,19:10:00,0.712
2023-10-06,19:20:00,0.713
2023-10-06,19:30:00,0.713
2023-10-06,19:40:00,0.714
2023-10-06,19:50:00,0.715
2023-10-06,20:00:00,0.714
2023-10-06,20:10:00,0.714
2023-10-06,20:20:00,0.714
2023-10-06,20:30:00,0.714
2023-10-06,20:40:00,0.714
2023-10-06,20:50:00,0.715
2023-10-06,21:00:00,0.714
2023-10-06,21:10:00,0.715
2023-10-06,21:20:00,0.717
2023-10-06,21:30:00,0.716
2023-10-06,21:40:00,0.715
2023-10-06,21:50:00,0.716
2023-10-06,22:00:00,0.71
2023-10-06,22:10:00,0.717
2023-10-06,22:20:00,0.716
2023-10-06,22:30:00,0.717
2023-10-06,22:40:00,0.717
2023-10-06,22:50:00,0.715
2023-10-06,23:00:00,0.717
2023-10-06,23:10:00,0.716
2023-10-06,23:20:00,0.716
2023-10-06,23:30:00,0.716
2023-10-06,23:40:00,0.715
2023-10-06,23:50:00,-
2023-10-07,00:00:00,0.716
2023-10-07,00:10:00,0.715
2023-10-07,00:20:00,0.714
2023-10-07,00:30:00,0.714
2023-10-07,00:40:00,0.715
2023-10-07,00:50:00,0.713
2023-10-07,01:00:00,0.716
2023-10-07,01:10:00,-
2023-10-07,01:20:00,0.714
2023-10-07,01:30:00,0.7
2023-10-07,01:40:00,0.713
2023-10-07,01:50:00,0.717
2023-10-07,02:00:00,0.713
2023-10-07,02:10:00,0.715
2023-10-07,02:20:00,0.714
2023-10-07,02:30:00,0.708
2023-10-07,02:40:00,0.705
2023-10-07,02:50:00,0.701
2023-10-07,03:00:00,0.695
2023-10-07,03:10:00,0.703
2023-10-07,03:20:00,0.667
2023-10-07,03:30:00,0.697
2023-10-07,03:40:00,-
2023-10-07,03:50:00,0.69
2023-10-07,04:00:00,0.688
2023-10-07,04:10:00,0.686
2023-10-07,04:20:00,0.697
2023-10-07,04:30:00,0.686
2023-10-07,04:40:00,0.682
2023-10-07,04:50:00,0.681
2023-10-07,05:00:00,0.68
2023-10-07,05:10:00,0.679
2023-10-07,05:20:00,0.661
2023-10-07,05:30:00,0.673
2023-10-07,05:40:00,-
2023-10-07,05:50:00,0.665
2023-10-07,06:00:00,0.651
2023-10-07,06:10:00,0.659
2023-10-07,06:20:00,0.661
2023-10-07,06:30:00,0.658
2023-10-07,06:40:00,0.66
2023-10-07,06:50:00,0.655
2023-10-07,07:00:00,0.646
2023-10-07,07:10:00,0.653
2023-10-07,07:20:00,0.64
2023-10-07,07:30:00,0.641
2023-10-07,07:40:00,0.639
2023-10-07,07:50:00,0.635
2023-10-07,08:00:00,0.638
2023-10-07,08:10:00,0.628
2023-10-07,08:20:00,-
2023-10-07,08:30:00,0.633
2023-10-07,08:40:00,0.611
2023-10-07,08:50:00,0.601
2023-10-07,09:00:00,0.615
2023-10-07,09:10:00,-
2023-10-07,09:20:00,3.784
2023-10-07,09:30:00,3.784
2023-10-07,09:40:00,3.783
2023-10-07,09:50:00,3.783
2023-10-07,10:00:00,3.783
2023-10-07,10:10:00,-
2023-10-07,10:20:00,3.783
2023-10-07,10:30:00,3.783
2023-10-07,10:40:00,3.783